Regional Weather Roundup
Issued by NWS Cleveland, OH

Home | Current Version | Previous Version | Graphics & Text | Print | Product List | Glossary On
Versions: 1 2 3 4 5 6 7 8 9 10 11 12 13 14 15 16 17 18 19 20 21 22 23 24 25 26 27 28 29 30 31 32 33 34 35 36 37 38 39 40 41 42 43 44 45 46 47 48 49 50
000
ASUS41 KCLE 282102
RWRCLE
OHIO REGIONAL WEATHER ROUNDUP
NATIONAL WEATHER SERVICE CLEVELAND, OH
500 PM EDT TUE MAR 28 2017

NOTE: "FAIR" INDICATES FEW OR NO CLOUDS BELOW 12,000 FEET WITH NO
SIGNIFICANT WEATHER AND/OR OBSTRUCTIONS TO VISIBILITY.

OHZ001>008-015>018-024>027-034-035-043-044-282200-
   NORTHWEST OHIO

CITY           SKY/WX    TMP DP  RH WIND       PRES   REMARKS
DEFIANCE       CLOUDY    50  41  71 NE10      30.08R
FINDLAY        CLOUDY    50  41  71 N7        30.06R
TOLEDO EXPRESS CLOUDY    48  40  73 N6        30.08R
TOLEDO EXEC    CLOUDY    49  40  71 NE5       30.09R
LIMA           CLOUDY    49  45  86 N8        30.06R
$$

OHZ009>014-019>023-028>033-038-089-282200-
   NORTHEAST OHIO

CITY           SKY/WX    TMP DP  RH WIND       PRES   REMARKS
CLE-HOPKINS    CLOUDY    45  38  76 NW9       30.08R
CLE-LAKEFRONT  CLOUDY    41  37  86 W8        30.06R
CUY CO. ARPT   CLOUDY    45  41  87 N9        30.06R
LORAIN-ELYRIA  CLOUDY    43  37  79 N13       30.07R
ASHTABULA      CLOUDY    43  43 100 NE5       30.03S FOG
AKRON-CANTON   CLOUDY    47  40  76 NW14      30.02R
WOOSTER        CLOUDY    44  40  85 N14       30.04R
MANSFIELD      CLOUDY    43  41  93 N13       30.04R
YOUNGSTOWN     CLOUDY    46  42  86 NW14      30.00R
$$

OHZ042-051>053-060>062-070>072-077>081-282200-
  SOUTHWEST OHIO

CITY           SKY/WX    TMP DP  RH WIND       PRES   REMARKS
CINC-COVINGTON CLOUDY    58  50  75 NW10      30.03R
CINC-LUNKEN    CLOUDY    59  52  77 N12       30.03R
HAMILTON       CLOUDY    57  51  80 NW7       30.05R
DAYTON         CLOUDY    54  47  77 N10       30.05R
WRIGHT-PAT AFB CLOUDY    55  51  85 N8        30.03S
DAYTON GENERAL CLOUDY    56  48  74 NE12      30.03R
WILMINGTON     CLOUDY    55  50  83 N9        30.02R
$$

OHZ036-037-039>041-045>050-054>059-063>069-073>076-082>088-282200-
  CENTRAL AND SOUTHEAST OHIO

CITY           SKY/WX    TMP DP  RH WIND       PRES   REMARKS
COLUMBUS       MOSUNNY   59  48  67 N14G20    30.01R
OSU AIRPORT    CLOUDY    54  47  77 N16       30.02R
BOLTON FIELD   MOSUNNY   55  48  76 N12       30.02R
RICKENBACK AFB MOSUNNY   59  49  69 N12G18    30.00R
NEWARK         CLOUDY    59  48  67 N9        30.00R
MARION         CLOUDY    48  42  80 N13       30.06R
LANCASTER      CLOUDY    61  51  70 N9        30.00R
ZANESVILLE     CLOUDY    59  48  67 N8        29.99R
NEW PHILLY     NOT AVBL
$$




USA.gov is the U.S. government's official web portal to all federal, state and local government web resources and services.